Location: Chequamegon National Forest
(46.1070°N, 90.8420°W)
Time: 19:15:48
(UTC-05:00)

Amateur Radio Satellites - All Passes

Search period start: 01 August 2015 18:45
Search period end: 02 August 2015 18:45
Location: Chequamegon National Forest, 46.1070°N, 90.8420°W

Satellite Date Start Highest point End Downlink Frequencies (MHz)
Time Altitude Azimuth
BRITE-PL 01 Aug 18:52:34 18:55:36 20° 66° (ENE) 18:58:41 437.365/2234.400
CUTE-I 01 Aug 19:00:44 19:05:55 49° 261° (W) 19:11:07 437.470
GOMX 1 01 Aug 19:01:38 19:03:50 14° 63° (ENE) 19:06:10 467.674
STRAND 1 01 Aug 19:08:06 19:11:39 19° 90° (E) 19:15:22 437.568
HO-68 01 Aug 19:09:06 19:14:39 26° 56° (NE) 19:20:24 435.675
CANX-2 01 Aug 19:15:13 19:16:40 12° 60° (ENE) 19:18:18 2200.000
GONETS M04 01 Aug 19:15:51 19:23:13 31° 277° (W) 19:30:23
PRISM 01 Aug 19:18:52 19:21:28 17° 91° (E) 19:24:11 437.425
VERMONT LUNAR 01 Aug 19:25:11 19:27:44 22° 166° (SSE) 19:30:17 437.305
Cubesat XI-IV 01 Aug 19:46:32 19:50:36 21° 270° (W) 19:54:31 437.490
PHONESAT 2.4 01 Aug 19:50:25 19:50:53 10° 152° (SSE) 19:51:27 2401.200-2431.200
SO-50 01 Aug 19:51:45 19:54:40 15° 250° (WSW) 19:57:22 436.795
CUBESAT XI-V 01 Aug 20:02:56 20:07:18 42° 290° (WNW) 20:11:36 437.345
RS-15 01 Aug 20:03:44 20:10:02 18° 99° (E) 20:17:09 29.354- 29.394
PCSat 01 Aug 20:06:27 20:09:52 17° 254° (WSW) 20:13:04 145.827
COMPASS 1 01 Aug 20:20:03 20:23:41 29° 68° (ENE) 20:27:24 437.405
DOVE 4 01 Aug 20:22:59 20:27:03 57° 73° (ENE) 20:31:10 437.250
CINEMA 3 01 Aug 20:28:25 20:32:02 30° 68° (ENE) 20:35:47 145.822/145.860
BRITE-PL 01 Aug 20:29:48 20:33:58 42° 262° (W) 20:37:58 437.365/2234.400
Cosmos 2499 01 Aug 20:32:21 20:40:17 39° 273° (W) 20:48:11 435.465 / 435.565
SEEDS 01 Aug 20:35:31 20:39:38 52° 73° (ENE) 20:43:50 437.485
FUNcube-1 01 Aug 20:36:56 20:38:28 12° 60° (ENE) 20:40:10 145.935
GOMX 1 01 Aug 20:37:26 20:41:36 60° 259° (W) 20:45:43 467.674
CUTE 1.7 + AOD 2 01 Aug 20:39:14 20:43:29 71° 75° (ENE) 20:47:47 437.475
UWE-3 01 Aug 20:39:32 20:42:08 16° 62° (ENE) 20:44:54 435.000/436.395/437.385
DELFI C3 01 Aug 20:44:13 20:46:28 15° 63° (ENE) 20:48:51 145.870
STRAND 1 01 Aug 20:46:17 20:51:19 59° 289° (WNW) 20:56:19 437.568
Oscar 11 01 Aug 20:46:35 20:50:01 24° 66° (ENE) 20:53:32 145.826/435.025
CANX-2 01 Aug 20:47:42 20:51:59 85° 257° (WSW) 20:56:19 2200.000
PRISM 01 Aug 20:53:14 20:57:12 47° 289° (WNW) 21:01:08 437.425
HO-68 01 Aug 20:54:39 21:01:48 76° 255° (WSW) 21:09:00 435.675
CUBEBUG 2 01 Aug 20:55:14 20:58:48 28° 67° (ENE) 21:02:32 437.445
AAUSAT CUBESAT 2 01 Aug 21:00:19 21:04:29 65° 74° (ENE) 21:08:41 437.432
VERMONT LUNAR 01 Aug 21:01:12 21:04:01 29° 183° (S) 21:06:50 437.305
ISS 01 Aug 21:08:29 21:11:13 25° 140° (SE) 21:13:59 145.825
DX 1 01 Aug 21:19:29 21:20:48 11° 59° (ENE) 21:22:19 434.975-435.025
PHONESAT 2.4 01 Aug 21:25:12 21:28:10 26° 167° (SSE) 21:31:10 2401.200-2431.200
Cosmos 2491 01 Aug 21:25:48 21:29:36 14° 48° (NE) 21:33:53 435.465 / 435.565
VELOX 1 01 Aug 21:37:06 21:37:40 10° 58° (ENE) 21:38:27 145.980
M-CUBED/EXP-1 PRIME 01 Aug 21:45:46 21:48:38 16° 93° (E) 21:51:38 437.505
ZACube-1 01 Aug 21:48:38 21:52:47 61° 73° (ENE) 21:57:04 437.345
ESTCUBE 1 01 Aug 21:51:04 21:51:57 11° 58° (ENE) 21:53:03 437.505/2401.250
COMPASS 1 01 Aug 21:55:38 21:59:20 28° 266° (W) 22:03:00 437.405
DOVE 4 01 Aug 22:03:11 22:05:19 13° 272° (W) 22:07:17 437.250
CINEMA 3 01 Aug 22:05:45 22:09:18 26° 267° (W) 22:12:51 145.822/145.860
50 SAT 01 Aug 22:07:22 22:10:11 20° 66° (ENE) 22:13:06 437.505
RS-15 01 Aug 22:09:43 22:20:33 74° 121° (ESE) 22:31:52 29.354- 29.394
FUNcube-1 01 Aug 22:09:58 22:14:10 82° 258° (WSW) 22:18:30 145.935
SEEDS 01 Aug 22:13:03 22:15:47 16° 271° (W) 22:18:24 437.485
AUBIESAT-1 01 Aug 22:13:46 22:17:39 25° 97° (E) 22:21:32 437.475
UWE-3 01 Aug 22:14:07 22:18:15 56° 260° (W) 22:22:30 435.000/436.395/437.385
DELFI C3 01 Aug 22:17:06 22:21:06 58° 260° (W) 22:25:09 145.870
CUTE 1.7 + AOD 2 01 Aug 22:18:09 22:19:58 12° 274° (W) 22:21:36 437.475
Oscar 11 01 Aug 22:21:58 22:26:02 38° 263° (W) 22:30:06 145.826/435.025
UKube-1 01 Aug 22:23:11 22:27:14 41° 70° (ENE) 22:31:20 .
HUMSAT D 01 Aug 22:29:43 22:33:52 71° 74° (ENE) 22:38:04 437.325/437.525
AISAT 01 Aug 22:30:50 22:34:48 34° 68° (ENE) 22:38:48 437.250
CUBEBUG 2 01 Aug 22:31:46 22:35:29 29° 266° (W) 22:39:14 437.445
VERMONT LUNAR 01 Aug 22:38:03 22:40:14 17° 199° (SSW) 22:42:24 437.305
AAUSAT CUBESAT 2 01 Aug 22:38:37 22:40:36 13° 273° (W) 22:42:24 437.432
CUBEBUG 1 01 Aug 22:43:11 22:46:46 26° 67° (ENE) 22:50:24 437.445
ISS 01 Aug 22:44:14 22:47:28 59° 337° (NNW) 22:50:43 145.825
HO-68 01 Aug 22:47:08 22:50:56 14° 276° (W) 22:54:17 435.675
AIST 1 01 Aug 22:48:08 22:51:55 30° 73° (ENE) 22:55:43
DX 1 01 Aug 22:52:05 22:56:26 90° 77° (ENE) 23:00:48 434.975-435.025
UNISAT 6 01 Aug 22:56:29 23:00:27 27° 93° (E) 23:04:31 437.425
PHONESAT 2.4 01 Aug 23:02:32 23:05:42 32° 184° (S) 23:08:52 2401.200-2431.200
POPSAT HIP 1 01 Aug 23:02:32 23:03:38 11° 86° (E) 23:04:59 437.405
VELOX 1 01 Aug 23:09:07 23:13:31 79° 76° (ENE) 23:17:57 145.980
QB50P2 01 Aug 23:09:29 23:11:39 14° 88° (E) 23:14:00 145.880/145.840
BEESAT 3 01 Aug 23:14:51 23:18:06 24° 115° (ESE) 23:21:27 437.485
SPROUT 01 Aug 23:17:02 23:19:57 19° 64° (ENE) 23:23:00 437.525
M-CUBED/EXP-1 PRIME 01 Aug 23:19:06 23:23:55 70° 292° (WNW) 23:28:36 437.505
Cosmos 2491 01 Aug 23:20:24 23:28:59 58° 75° (ENE) 23:37:33 435.465 / 435.565
ESTCUBE 1 01 Aug 23:23:34 23:28:07 78° 75° (ENE) 23:32:41 437.505/2401.250
TISAT 1 01 Aug 23:26:34 23:28:52 15° 62° (ENE) 23:31:19 437.305
ZACube-1 01 Aug 23:27:23 23:29:39 14° 273° (W) 23:31:46 437.345
DUCHIFAT 1 01 Aug 23:32:19 23:35:37 22° 92° (E) 23:39:01 145.980
QB50P1 01 Aug 23:36:02 23:39:33 25° 94° (E) 23:43:08 145.935-145.965
NANOSAT C BR1 01 Aug 23:36:56 23:40:28 25° 94° (E) 23:44:03 145.865
TIGRISAT 01 Aug 23:39:04 23:43:45 68° 101° (E) 23:48:27 435.000
50 SAT 01 Aug 23:40:52 23:44:31 37° 263° (W) 23:48:13 437.505
ANTELSAT 01 Aug 23:41:12 23:45:55 74° 103° (ESE) 23:50:38 437.575/2403.000
YUBILEINY 01 Aug 23:45:34 23:52:53 33° 84° (E) 00:00:27 435.215
AUBIESAT-1 01 Aug 23:47:58 23:52:31 44° 296° (WNW) 23:56:55 437.475
UKube-1 02 Aug 00:00:15 00:03:34 21° 268° (W) 00:06:48 .
AISAT 02 Aug 00:07:42 00:11:26 26° 266° (W) 00:15:07 437.250
HUMSAT D 02 Aug 00:08:40 00:10:11 11° 274° (W) 00:11:30 437.325/437.525
BEESAT 2 02 Aug 00:12:55 00:17:00 70° 123° (ESE) 00:21:07 435.950
AIST 2 02 Aug 00:14:27 00:17:22 19° 113° (ESE) 00:20:25 435.215
CUBEBUG 1 02 Aug 00:19:02 00:23:01 34° 264° (W) 00:26:59 437.445
POLYITAN 1 02 Aug 00:19:04 00:23:21 73° 102° (ESE) 00:27:39 437.675
ISS 02 Aug 00:21:23 00:24:18 29° 357° (N) 00:27:15 145.825
RS-15 02 Aug 00:23:29 00:33:58 44° 328° (NNW) 00:44:50 29.354- 29.394
BEESAT 02 Aug 00:24:44 00:26:59 14° 58° (ENE) 00:29:26 436.000
AIST 1 02 Aug 00:25:57 00:29:29 25° 271° (W) 00:32:54
UNISAT 6 02 Aug 00:33:00 00:37:19 37° 291° (WNW) 00:41:37 437.425
BUGSAT 1 02 Aug 00:35:46 00:39:49 67° 102° (ESE) 00:43:54 437.445
POPSAT HIP 1 02 Aug 00:35:50 00:40:07 77° 285° (WNW) 00:44:23 437.405
PHONESAT 2.4 02 Aug 00:40:39 00:43:09 18° 200° (SSW) 00:45:37 2401.200-2431.200
QB50P2 02 Aug 00:43:46 00:48:00 61° 287° (WNW) 00:52:12 145.880/145.840
SWISSCUBE 02 Aug 00:43:54 00:47:27 21° 63° (ENE) 00:51:07 437.505
VELOX 1 02 Aug 00:49:14 00:50:44 11° 274° (W) 00:51:59 145.980
SPROUT 02 Aug 00:51:36 00:55:44 48° 261° (W) 00:59:54 437.525
BEESAT 3 02 Aug 00:51:58 00:55:51 41° 313° (NW) 00:59:47 437.485
M-CUBED/EXP-1 PRIME 02 Aug 00:55:57 00:57:53 12° 309° (NW) 00:59:38 437.505
TISAT 1 02 Aug 01:00:04 01:04:12 61° 259° (W) 01:08:21 437.305
ESTCUBE 1 02 Aug 01:03:46 01:05:38 12° 274° (W) 01:07:15 437.505/2401.250
ITUPSAT 1 02 Aug 01:04:38 01:08:44 29° 66° (ENE) 01:12:55 437.325
DUCHIFAT 1 02 Aug 01:07:38 01:11:33 37° 290° (WNW) 01:15:28 145.980
QB50P1 02 Aug 01:11:37 01:15:28 33° 291° (WNW) 01:19:16 145.935-145.965
NANOSAT C BR1 02 Aug 01:12:31 01:16:20 33° 291° (WNW) 01:20:08 145.865
TIGRISAT 02 Aug 01:17:01 01:20:02 17° 298° (WNW) 01:22:54 435.000
Cosmos 2491 02 Aug 01:17:52 01:25:30 34° 275° (W) 01:32:56 435.465 / 435.565
ANTELSAT 02 Aug 01:19:20 01:22:10 16° 299° (WNW) 01:24:51 437.575/2403.000
YUBILEINY 02 Aug 01:40:40 01:49:16 61° 285° (WNW) 01:57:58 435.215
O/OREOS (USA 219) 02 Aug 01:42:14 01:46:32 49° 109° (ESE) 01:50:56 437.305
AIST 2 02 Aug 01:51:24 01:55:35 55° 310° (NW) 01:59:48 435.215
BEESAT 2 02 Aug 01:52:26 01:55:30 19° 324° (NW) 01:58:31 435.950
POLYITAN 1 02 Aug 01:56:34 01:58:45 13° 299° (WNW) 02:00:45 437.675
ISS 02 Aug 01:58:05 02:01:13 43° 17° (NNE) 02:04:22 145.825
BEESAT 02 Aug 01:59:24 02:04:12 88° 247° (WSW) 02:09:02 436.000
Gurwin Techsat 1B 02 Aug 02:06:18 02:08:26 13° 85° (E) 02:10:51 435.225
STARS 02 Aug 02:10:27 02:12:48 15° 61° (ENE) 02:15:20 437.465
BUGSAT 1 02 Aug 02:12:50 02:14:50 13° 298° (WNW) 02:16:42 437.445
SWISSCUBE 02 Aug 02:20:17 02:24:59 52° 260° (W) 02:29:42 437.505
JAS-2 02 Aug 02:22:16 02:24:39 12° 77° (ENE) 02:27:40 435.910
ITAMSAT 1 02 Aug 02:22:43 02:25:37 15° 87° (E) 02:28:44 435.822/435.867
BEESAT 3 02 Aug 02:34:18 02:34:54 10° 335° (NNW) 02:35:23 437.485
Oscar 19 02 Aug 02:37:26 02:42:39 73° 104° (ESE) 02:47:50 437.125/150
KKS-1 02 Aug 02:37:29 02:41:37 41° 70° (ENE) 02:45:48 437.445
RS-15 02 Aug 02:40:32 02:50:09 30° 1° (N) 03:00:09 29.354- 29.394
ITUPSAT 1 02 Aug 02:42:05 02:46:32 36° 264° (W) 02:50:59 437.325
Cosmos 2504 02 Aug 02:46:05 02:52:57 52° 90° (E) 03:00:24 435.465 / 435.565
O/OREOS (USA 219) 02 Aug 03:22:45 03:26:17 22° 309° (NW) 03:29:46 437.305
AIST 2 02 Aug 03:33:06 03:35:06 13° 332° (NNW) 03:37:01 435.215
ISS 02 Aug 03:34:34 03:37:40 42° 216° (SW) 03:40:46 145.825
MOZHAYETS 4 02 Aug 03:35:26 03:39:00 23° 65° (ENE) 03:42:41
BEESAT 02 Aug 03:41:33 03:42:52 11° 275° (W) 03:43:53 436.000
YUBILEINY 02 Aug 03:43:50 03:48:31 15° 311° (NW) 03:52:45 435.215
Gurwin Techsat 1B 02 Aug 03:43:55 03:49:17 89° 103° (ESE) 03:54:37 435.225
STARS 02 Aug 03:44:26 03:48:46 68° 257° (WSW) 03:53:09 437.465
CUSAT 1 02 Aug 04:00:22 04:02:10 16° 95° (E) 04:03:57 437.405
ITAMSAT 1 02 Aug 04:00:36 04:05:48 75° 287° (WNW) 04:10:57 435.822/435.867
AO-7 02 Aug 04:03:38 04:10:26 28° 92° (E) 04:17:25 29.400- 29.500
JAS-2 02 Aug 04:03:45 04:11:29 60° 99° (E) 04:19:09 435.910
KKS-1 02 Aug 04:14:57 04:18:27 22° 268° (W) 04:21:51 437.445
Oscar 19 02 Aug 04:18:00 04:21:29 18° 300° (WNW) 04:24:49 437.125/150
GONETS M04 02 Aug 04:31:43 04:35:15 14° 74° (ENE) 04:39:22
Cosmos 2504 02 Aug 04:39:03 04:45:34 34° 294° (WNW) 04:52:24 435.465 / 435.565
RS-15 02 Aug 04:55:16 05:06:17 47° 34° (NNE) 05:17:50 29.354- 29.394
HORYU 2 02 Aug 05:08:36 05:13:09 82° 104° (ESE) 05:17:40 437.375
MOZHAYETS 4 02 Aug 05:11:31 05:15:59 45° 262° (W) 05:20:28
Gurwin Techsat 1B 02 Aug 05:25:29 05:28:37 16° 302° (WNW) 05:31:32 435.225
DANDE 02 Aug 05:29:05 05:31:55 35° 284° (WNW) 05:34:26 436.750
CUBESAT XI-V 02 Aug 05:31:44 05:35:46 30° 68° (ENE) 05:39:52 437.345
ITAMSAT 1 02 Aug 05:42:19 05:44:31 12° 305° (NW) 05:46:29 435.822/435.867
CUSAT 1 02 Aug 05:43:21 05:44:41 13° 291° (WNW) 05:45:56 437.405
JAS-2 02 Aug 05:49:13 05:56:11 37° 298° (WNW) 06:03:03 435.910
AO-7 02 Aug 05:55:43 06:04:03 72° 292° (WNW) 06:12:17 29.400- 29.500
PRISM 02 Aug 06:11:20 06:14:15 19° 64° (ENE) 06:17:15 437.425
Cubesat XI-IV 02 Aug 06:20:25 06:24:04 19° 89° (E) 06:27:52 437.490
GONETS M04 02 Aug 06:21:59 06:30:34 68° 94° (E) 06:39:11
STRAND 1 02 Aug 06:26:03 06:30:43 37° 67° (ENE) 06:35:27 437.568
HORYU 2 02 Aug 06:46:58 06:49:12 13° 301° (WNW) 06:51:16 437.375
BEESAT 2 02 Aug 06:52:32 06:55:12 17° 34° (NE) 06:57:55 435.950
RS-15 02 Aug 07:08:02 07:19:43 73° 239° (WSW) 07:31:49 29.354- 29.394
CUBESAT XI-V 02 Aug 07:08:55 07:13:10 33° 265° (W) 07:17:22 437.345
CUTE-I 02 Aug 07:15:00 07:20:14 55° 100° (E) 07:25:26 437.470
Cosmos 2499 02 Aug 07:19:11 07:25:49 37° 86° (E) 07:33:04 435.465 / 435.565
BEESAT 3 02 Aug 07:30:15 07:34:01 35° 45° (NE) 07:37:44 437.485
PRISM 02 Aug 07:45:21 07:49:24 46° 261° (W) 07:53:26 437.425
AO-7 02 Aug 07:49:50 07:55:37 21° 314° (NW) 08:01:05 29.400- 29.500
Cubesat XI-IV 02 Aug 07:59:24 08:04:42 64° 288° (WNW) 08:09:57 437.490
STRAND 1 02 Aug 08:05:23 08:09:59 32° 265° (W) 08:14:33 437.568
DOVE 4 02 Aug 08:19:59 08:22:20 14° 88° (E) 08:24:59 437.250
GONETS M04 02 Aug 08:20:41 08:28:14 31° 297° (WNW) 08:35:36
HO-68 02 Aug 08:20:52 08:25:29 18° 87° (E) 08:30:24 435.675
CUTE 1.7 + AOD 2 02 Aug 08:24:43 08:25:22 10° 85° (E) 08:26:16 437.475
SO-50 02 Aug 08:28:31 08:31:04 15° 110° (ESE) 08:33:51 436.795
BEESAT 2 02 Aug 08:29:44 08:33:51 86° 232° (SW) 08:37:52 435.950
BRITE-PL 02 Aug 08:30:46 08:34:57 43° 98° (E) 08:39:26 437.365/2234.400
CANX-2 02 Aug 08:31:53 08:34:10 14° 88° (E) 08:36:37 2200.000
AIST 2 02 Aug 08:32:34 08:36:19 30° 42° (NE) 08:40:01 435.215
M-CUBED/EXP-1 PRIME 02 Aug 08:35:23 08:38:56 27° 60° (ENE) 08:42:46 437.505
GOMX 1 02 Aug 08:35:51 08:39:50 30° 95° (E) 08:44:07 467.674
CUTE-I 02 Aug 08:55:46 08:59:59 24° 298° (WNW) 09:04:05 437.470
AUBIESAT-1 02 Aug 09:03:05 09:07:02 43° 64° (ENE) 09:11:19 437.475
PCSat 02 Aug 09:05:46 09:10:51 43° 115° (ESE) 09:16:00 145.827
TIGRISAT 02 Aug 09:08:03 09:08:35 10° 57° (ENE) 09:09:20 435.000
BEESAT 3 02 Aug 09:08:21 09:11:52 28° 244° (WSW) 09:15:16 437.485
ANTELSAT 02 Aug 09:09:36 09:10:51 11° 58° (ENE) 09:12:20 437.575/2403.000
Cosmos 2499 02 Aug 09:11:33 09:18:48 49° 288° (WNW) 09:26:37 435.465 / 435.565
RS-15 02 Aug 09:22:36 09:30:29 20° 260° (W) 09:37:44 29.354- 29.394
COMPASS 1 02 Aug 09:35:53 09:39:50 37° 97° (E) 09:43:46 437.405
ZACube-1 02 Aug 09:37:01 09:38:00 11° 85° (E) 09:39:17 437.345
Cubesat XI-IV 02 Aug 09:42:21 09:43:53 11° 306° (NW) 09:45:09 437.490
YUBILEINY 02 Aug 09:51:50 09:57:38 19° 55° (NE) 10:03:48 435.215
SEEDS 02 Aug 09:52:46 09:57:03 73° 102° (ESE) 10:01:17 437.485
DELFI C3 02 Aug 09:54:37 09:57:04 16° 89° (E) 09:59:38 145.870
DOVE 4 02 Aug 09:56:00 10:00:35 72° 286° (WNW) 10:05:27 437.250
CINEMA 3 02 Aug 09:56:24 10:01:01 57° 100° (E) 10:05:49 145.822/145.860
FUNcube-1 02 Aug 09:56:32 09:59:27 17° 89° (E) 10:02:33 145.935
CUTE 1.7 + AOD 2 02 Aug 09:57:38 10:01:58 82° 284° (WNW) 10:06:14 437.475
POPSAT HIP 1 02 Aug 09:57:51 09:59:40 13° 61° (ENE) 10:01:39 437.405
UNISAT 6 02 Aug 09:58:02 10:01:53 31° 67° (ENE) 10:05:52 437.425
UWE-3 02 Aug 10:01:25 10:05:13 25° 93° (E) 10:09:07 435.000/436.395/437.385
QB50P2 02 Aug 10:05:06 10:07:34 16° 63° (ENE) 10:10:11 145.880/145.840
SO-50 02 Aug 10:06:12 10:11:00 82° 308° (NW) 10:15:58 436.795
CANX-2 02 Aug 10:06:17 10:10:33 60° 287° (WNW) 10:14:46 2200.000
Oscar 11 02 Aug 10:06:35 10:10:30 32° 95° (E) 10:14:25 145.826/435.025
HO-68 02 Aug 10:07:02 10:14:17 89° 287° (WNW) 10:21:30 435.675
M-CUBED/EXP-1 PRIME 02 Aug 10:09:48 10:13:35 35° 259° (W) 10:17:40 437.505
BRITE-PL 02 Aug 10:09:58 10:13:20 22° 294° (WNW) 10:16:46 437.365/2234.400
O/OREOS (USA 219) 02 Aug 10:10:51 10:14:17 21° 50° (NE) 10:17:49 437.305
AIST 2 02 Aug 10:11:03 10:14:56 36° 242° (WSW) 10:18:43 435.215
GOMX 1 02 Aug 10:13:59 10:18:00 31° 291° (WNW) 10:22:09 467.674
HUMSAT D 02 Aug 10:14:11 10:14:31 10° 85° (E) 10:15:07 437.325/437.525
AAUSAT CUBESAT 2 02 Aug 10:16:04 10:20:19 88° 102° (ESE) 10:24:30 437.432
CUBEBUG 2 02 Aug 10:19:08 10:23:37 47° 98° (E) 10:28:11 437.445
DUCHIFAT 1 02 Aug 10:27:13 10:30:31 24° 66° (ENE) 10:33:55 145.980
QB50P1 02 Aug 10:31:16 10:34:46 27° 67° (ENE) 10:38:21 145.935-145.965
NANOSAT C BR1 02 Aug 10:31:58 10:35:27 27° 67° (ENE) 10:39:02 145.865
Cosmos 2491 02 Aug 10:35:09 10:37:41 12° 72° (ENE) 10:40:53 435.465 / 435.565
AUBIESAT-1 02 Aug 10:38:45 10:42:00 21° 264° (W) 10:45:20 437.475
DX 1 02 Aug 10:39:38 10:41:30 13° 88° (E) 10:43:33 434.975-435.025
TIGRISAT 02 Aug 10:40:14 10:44:34 79° 75° (ENE) 10:49:04 435.000
ANTELSAT 02 Aug 10:42:34 10:46:56 86° 76° (ENE) 10:51:27 437.575/2403.000
PCSat 02 Aug 10:49:25 10:54:24 35° 314° (NW) 10:59:22 145.827
VELOX 1 02 Aug 10:58:55 11:00:39 12° 87° (E) 11:02:37 145.980
ZACube-1 02 Aug 11:10:29 11:15:04 87° 284° (WNW) 11:19:40 437.345
COMPASS 1 02 Aug 11:11:57 11:15:18 22° 294° (WNW) 11:18:33 437.405
Cosmos 2499 02 Aug 11:12:55 11:14:44 11° 316° (NW) 11:16:04 435.465 / 435.565
50 SAT 02 Aug 11:14:01 11:16:57 20° 92° (E) 11:19:58 437.505
POLYITAN 1 02 Aug 11:14:16 11:18:27 76° 76° (ENE) 11:22:42 437.675
ESTCUBE 1 02 Aug 11:15:21 11:17:31 14° 87° (E) 11:19:54 437.505/2401.250
AIST 1 02 Aug 11:21:24 11:24:04 17° 87° (E) 11:26:52
BUGSAT 1 02 Aug 11:28:03 11:32:04 65° 74° (ENE) 11:36:04 437.445
DELFI C3 02 Aug 11:28:31 11:32:27 48° 288° (WNW) 11:36:21 145.870
SEEDS 02 Aug 11:30:10 11:32:19 13° 299° (WNW) 11:34:17 437.485
POPSAT HIP 1 02 Aug 11:30:49 11:35:01 74° 258° (WSW) 11:39:14 437.405
FUNcube-1 02 Aug 11:31:42 11:36:09 56° 287° (WNW) 11:40:38 145.935
CINEMA 3 02 Aug 11:34:30 11:37:52 20° 296° (WNW) 11:41:14 145.822/145.860
UNISAT 6 02 Aug 11:34:50 11:38:40 29° 266° (W) 11:42:33 437.425
CUTE 1.7 + AOD 2 02 Aug 11:36:41 11:37:11 10° 301° (WNW) 11:37:29 437.475
UWE-3 02 Aug 11:37:35 11:41:51 39° 290° (WNW) 11:46:09 435.000/436.395/437.385
QB50P2 02 Aug 11:38:54 11:43:03 58° 259° (W) 11:47:14 145.880/145.840
Oscar 11 02 Aug 11:42:51 11:46:37 28° 293° (WNW) 11:50:17 145.826/435.025
UKube-1 02 Aug 11:43:46 11:48:01 53° 100° (E) 11:52:15 .
HUMSAT D 02 Aug 11:46:34 11:50:56 85° 284° (WNW) 11:55:16 437.325/437.525
YUBILEINY 02 Aug 11:47:24 11:56:17 78° 79° (E) 12:05:08 435.215
SO-50 02 Aug 11:48:45 11:52:20 20° 329° (NNW) 11:55:54 436.795
O/OREOS (USA 219) 02 Aug 11:49:36 11:54:06 55° 250° (WSW) 11:58:35 437.305
AAUSAT CUBESAT 2 02 Aug 11:54:00 11:55:17 11° 300° (WNW) 11:56:23 437.432
AISAT 02 Aug 11:54:48 11:59:05 47° 100° (E) 12:03:22 437.250
HO-68 02 Aug 11:55:57 12:01:13 22° 307° (NW) 12:06:16 435.675
CUBEBUG 2 02 Aug 11:56:25 12:00:03 23° 295° (WNW) 12:03:38 437.445
DUCHIFAT 1 02 Aug 12:02:20 12:06:11 35° 263° (W) 12:10:02 145.980
CUBEBUG 1 02 Aug 12:04:56 12:08:53 35° 96° (E) 12:12:53 437.445
QB50P1 02 Aug 12:06:48 12:10:34 30° 265° (W) 12:14:18 145.935-145.965
NANOSAT C BR1 02 Aug 12:07:28 12:11:13 30° 265° (W) 12:14:57 145.865
DX 1 02 Aug 12:13:57 12:18:17 69° 287° (WNW) 12:22:35 434.975-435.025
Oscar 19 02 Aug 12:19:28 12:23:07 21° 61° (ENE) 12:26:54 437.125/150
TIGRISAT 02 Aug 12:20:32 12:22:02 11° 275° (W) 12:23:18 435.000
ANTELSAT 02 Aug 12:23:44 12:24:30 10° 276° (W) 12:25:00 437.575/2403.000
Cosmos 2491 02 Aug 12:24:21 12:32:53 61° 92° (E) 12:41:28 435.465 / 435.565
Cosmos 2504 02 Aug 12:28:47 12:34:58 23° 60° (ENE) 12:41:36 435.465 / 435.565
VELOX 1 02 Aug 12:33:22 12:37:48 73° 286° (WNW) 12:42:11 145.980
SPROUT 02 Aug 12:35:56 12:39:25 24° 93° (E) 12:42:56 437.525
PCSat 02 Aug 12:37:53 12:39:33 11° 338° (NNW) 12:41:06 145.827
TISAT 1 02 Aug 12:42:47 12:45:32 17° 90° (E) 12:48:25 437.305
50 SAT 02 Aug 12:47:59 12:51:40 36° 290° (WNW) 12:55:19 437.505
ZACube-1 02 Aug 12:48:58 12:50:47 12° 300° (WNW) 12:52:24 437.345
ESTCUBE 1 02 Aug 12:50:28 12:54:57 68° 286° (WNW) 12:59:23 437.505/2401.250
POLYITAN 1 02 Aug 12:53:47 12:54:59 11° 274° (W) 12:55:57 437.675
AIST 1 02 Aug 12:57:09 13:01:22 48° 283° (WNW) 13:05:35
BUGSAT 1 02 Aug 13:06:27 13:08:02 12° 272° (W) 13:09:25 437.445
AO-7 02 Aug 13:18:10 13:21:57 14° 39° (NE) 13:26:05 29.400- 29.500
UKube-1 02 Aug 13:20:49 13:23:48 18° 297° (WNW) 13:26:38 .
HUMSAT D 02 Aug 13:24:54 13:26:01 11° 301° (WNW) 13:26:55 437.325/437.525
Gurwin Techsat 1B 02 Aug 13:28:56 13:33:19 27° 64° (ENE) 13:37:47 435.225
AISAT 02 Aug 13:32:06 13:35:22 20° 296° (WNW) 13:38:33 437.250
CUBEBUG 1 02 Aug 13:41:33 13:45:07 25° 294° (WNW) 13:48:38 437.445
ITAMSAT 1 02 Aug 13:42:33 13:47:04 32° 65° (ENE) 13:51:41 435.822/435.867
YUBILEINY 02 Aug 13:45:26 13:52:17 25° 280° (W) 13:58:49 435.215
Oscar 19 02 Aug 13:57:00 14:02:04 61° 259° (W) 14:07:10 437.125/150
BEESAT 02 Aug 13:57:57 14:01:21 20° 91° (E) 14:04:53 436.000
SPROUT 02 Aug 14:11:38 14:15:36 35° 290° (WNW) 14:19:30 437.525
TISAT 1 02 Aug 14:17:32 14:21:36 48° 289° (WNW) 14:25:40 437.305
SWISSCUBE 02 Aug 14:18:09 14:22:26 33° 96° (E) 14:26:44 437.505
JAS-2 02 Aug 14:18:58 14:24:31 34° 61° (ENE) 14:30:48 435.910
Cosmos 2504 02 Aug 14:19:59 14:28:27 90° 266° (W) 14:37:07 435.465 / 435.565
DANDE 02 Aug 14:21:27 14:23:04 12° 69° (ENE) 14:25:04 436.750
Cosmos 2491 02 Aug 14:22:31 14:30:22 34° 295° (WNW) 14:38:03 435.465 / 435.565
CUSAT 1 02 Aug 14:29:39 14:33:10 27° 74° (ENE) 14:37:38 437.405
HORYU 2 02 Aug 14:35:24 14:37:28 13° 60° (ENE) 14:39:44 437.375
ITUPSAT 1 02 Aug 14:39:39 14:44:17 47° 99° (E) 14:48:53 437.325
AO-7 02 Aug 15:05:01 15:12:55 50° 61° (ENE) 15:20:54 29.400- 29.500
Gurwin Techsat 1B 02 Aug 15:07:58 15:13:05 47° 262° (W) 15:18:13 435.225
SO-50 02 Aug 15:16:00 15:17:40 12° 17° (NNE) 15:19:26 436.795
ITAMSAT 1 02 Aug 15:21:38 15:26:30 38° 263° (W) 15:31:22 435.822/435.867
STARS 02 Aug 15:32:22 15:35:24 18° 91° (E) 15:38:33 437.465
BEESAT 02 Aug 15:34:53 15:39:33 52° 289° (WNW) 15:44:10 436.000
SWISSCUBE 02 Aug 15:56:01 16:00:16 32° 294° (WNW) 16:04:26 437.505
KKS-1 02 Aug 16:02:07 16:06:32 59° 101° (E) 16:10:58 437.445
DANDE 02 Aug 16:02:34 16:06:15 58° 261° (W) 16:11:08 436.750
JAS-2 02 Aug 16:03:15 16:09:19 52° 263° (W) 16:16:11 435.910
PCSat 02 Aug 16:08:24 16:11:39 16° 31° (NNE) 16:15:02 145.827
HORYU 2 02 Aug 16:09:05 16:13:32 80° 256° (WSW) 16:18:03 437.375
CUSAT 1 02 Aug 16:11:51 16:15:40 33° 263° (W) 16:20:31 437.405
Cosmos 2504 02 Aug 16:13:43 16:19:44 21° 281° (W) 16:25:29 435.465 / 435.565
ITUPSAT 1 02 Aug 16:18:07 16:21:55 23° 297° (WNW) 16:25:35 437.325
GONETS M04 02 Aug 16:29:07 16:37:03 38° 67° (ENE) 16:45:07
SO-50 02 Aug 16:55:18 16:59:46 32° 40° (NE) 17:04:13 436.795
AO-7 02 Aug 16:57:55 17:05:51 44° 262° (W) 17:13:45 29.400- 29.500
CUTE-I 02 Aug 17:01:41 17:05:15 19° 59° (ENE) 17:08:58 437.470
MOZHAYETS 4 02 Aug 17:04:02 17:08:17 35° 96° (E) 17:12:32
Cosmos 2499 02 Aug 17:06:24 17:12:01 19° 55° (NE) 17:18:05 435.465 / 435.565
STARS 02 Aug 17:07:52 17:12:09 49° 289° (WNW) 17:16:25 437.465
KKS-1 02 Aug 17:39:48 17:42:46 17° 298° (WNW) 17:45:38 437.445
Cubesat XI-IV 02 Aug 17:44:29 17:49:27 40° 67° (ENE) 17:54:28 437.490
PCSat 02 Aug 17:50:52 17:56:15 62° 53° (NE) 18:01:38 145.827
VERMONT LUNAR 02 Aug 18:23:11 18:25:18 17° 161° (SSE) 18:27:26 437.305
GONETS M04 02 Aug 18:25:53 18:34:17 54° 270° (W) 18:42:38
SO-50 02 Aug 18:35:45 18:40:30 46° 241° (WSW) 18:45:08 436.795
